CAPE
0 0 0 17 0 11 50 198 216 328 161 290 6 143 6 453 1193 1071 1140 1093 1338 2101 1616 1067 902 573 418 393 351 338 369 402
0 0 0 42 15 15 88 65 100 248 352 152 92 79 134 1078 1071 838 966 1005 1847 2088 1658 1062 915 714 527 468 465 448 476 516
0 0 0 0 14 9 41 35 70 137 89 60 169 415 807 1030 933 610 772 1216 1624 2048 1646 1114 947 833 681 614 567 570 586 621
0 0 0 5 0 1 23 12 11 82 44 6 274 496 632 885 759 658 793 1200 1529 1853 1753 1505 1262 1056 982 880 741 639 651 679
0 0 0 26 2 18 9 12 1 0 16 5 37 52 474 648 836 871 888 1073 1245 1438 1270 1402 1516 1318 1167 1102 918 990 1030 1028
0 0 0 20 36 9 21 15 0 0 28 7 0 14 344 590 798 898 897 1082 1055 1201 1063 1186 1142 1276 1259 1224 1172 1108 909 854
0 0 0 0 12 30 27 16 19 42 0 4 1 30 443 567 591 598 653 782 957 1025 807 939 1012 1098 1431 1315 1295 1287 1105 1065
0 0 0 2 13 24 23 13 10 13 5 15 29 335 356 388 406 573 682 614 642 742 844 815 992 941 1044 900 974 1143 1108 1024
0 0 0 1 9 12 21 20 22 4 25 74 91 270 314 278 278 293 584 694 735 673 735 708 720 707 819 677 742 913 913 811
0 0 0 0 0 17 14 30 1 0 0 87 204 244 222 196 204 39 269 588 836 748 712 678 603 720 664 609 575 642 608 606
0 0 0 0 0 9 20 2 12 0 0 0 92 358 266 238 259 82 131 203 527 674 634 623 443 699 571 578 609 494 383 363
0 0 0 0 0 0 10 0 9 0 1 0 0 107 291 399 356 261 120 68 246 319 349 388 349 527 434 446 374 322 238 257
0 0 0 0 0 0 0 0 25 33 142 603 126 297 218 472 462 434 202 70 192 118 95 163 273 341 25 127 174 192 148 172
0 0 0 0 0 0 0 0 23 0 1308 1850 1981 871 314 127 293 25 197 188 231 230 106 87 255 173 24 25 78 156 117 145
0 0 0 0 0 0 0 0 37 549 1810 1848 1885 1782 1668 1047 673 44 115 244 206 254 373 312 373 468 510 512 630 698 645 471
0 0 0 0 0 0 0 87 1004 1530 1851 1863 1835 1663 1674 1710 1559 1032 1205 508 431 590 799 706 856 1608 1372 559 360 412 404 654
0 0 0 0 0 0 0 126 1092 1414 1755 1758 1521 1113 1279 1438 1433 1483 1547 1605 1654 1698 1743 1424 1731 1826 1170 468 181 22 15 86
0 0 0 0 0 0 0 7 934 1216 1601 1402 941 960 943 1031 1188 1343 1258 1225 1365 1457 1666 1809 1537 1280 495 252 32 1 0 0
0 0 0 0 0 0 0 0 530 1075 1483 1330 1400 1148 749 795 825 832 997 887 770 856 1023 1204 834 515 345 172 48 0 0 0
0 0 0 0 0 0 0 0 39 559 924 1214 1131 1068 756 571 480 611 526 477 459 488 620 922 863 599 498 326 106 12 0 0
CIN
-0 -0 -0 -119 -0 -315 -350 -303 -249 -175 -256 -240 -479 -522 -484 -451 -233 -214 -176 -177 -136 -44 -94 -162 -180 -229 -270 -282 -291 -285 -256 -227
-0 -0 -0 -141 -194 -278 -263 -273 -293 -237 -220 -334 -515 -547 -591 -300 -266 -261 -210 -190 -74 -46 -87 -151 -173 -208 -231 -253 -248 -244 -224 -188
-0 -0 -0 -0 -189 -305 -280 -274 -256 -265 -287 -359 -462 -485 -403 -342 -298 -330 -265 -156 -102 -52 -94 -144 -168 -181 -210 -221 -222 -205 -193 -168
-0 -0 -0 -309 -61 -235 -337 -362 -346 -278 -307 -472 -502 -497 -407 -323 -311 -286 -239 -166 -121 -63 -68 -94 -137 -166 -169 -190 -204 -202 -189 -168
-0 -0 -0 -319 -340 -408 -392 -399 -55 -0 -218 -381 -545 -569 -459 -400 -315 -270 -240 -208 -185 -143 -142 -109 -106 -134 -148 -158 -177 -145 -126 -118
-0 -0 -1 -323 -331 -535 -426 -296 -0 -0 -294 -450 -0 -572 -472 -398 -311 -253 -228 -206 -222 -193 -203 -161 -157 -143 -137 -149 -146 -152 -165 -166
-0 -0 -26 -0 -248 -383 -462 -435 -469 -436 -0 -141 -74 -237 -507 -437 -357 -309 -299 -272 -241 -231 -280 -246 -220 -194 -135 -145 -141 -130 -154 -140
-0 -0 -0 -317 -268 -291 -330 -398 -344 -388 -287 -572 -646 -565 -571 -555 -485 -380 -349 -349 -342 -313 -290 -307 -255 -257 -227 -244 -213 -164 -164 -171
-0 -0 -0 -12 -261 -335 -306 -302 -338 -319 -430 -597 -603 -572 -584 -564 -610 -653 -504 -410 -384 -372 -346 -353 -350 -353 -306 -329 -304 -241 -223 -223
-0 -0 -0 -0 -0 -229 -289 -143 -113 -0 -0 -566 -568 -556 -568 -595 -619 -729 -624 -485 -414 -406 -386 -388 -403 -381 -401 -397 -377 -337 -322 -310
-0 -0 -0 -0 -0 -169 -201 -94 -295 -0 -0 -0 -504 -526 -540 -552 -569 -708 -704 -643 -531 -473 -470 -444 -454 -392 -431 -436 -404 -421 -428 -405
-0 -0 -0 -0 -0 -0 -140 -0 -231 -0 -66 -0 -0 -514 -481 -522 -561 -608 -652 -736 -598 -577 -582 -550 -505 -460 -493 -486 -512 -495 -483 -468
-0 -0 -0 -0 -0 -0 -0 -0 -162 -234 -245 -235 -343 -388 -452 -475 -465 -511 -572 -620 -604 -638 -690 -645 -545 -519 -658 -571 -566 -556 -540 -533
-0 -0 -0 -0 -0 -0 -0 -0 -132 -0 -220 -276 -286 -318 -373 -490 -547 -663 -629 -582 -578 -497 -668 -721 -550 -553 -617 -599 -561 -519 -550 -546
-0 -0 -0 -0 -0 -0 -0 -0 -124 -285 -274 -310 -372 -415 -457 -526 -566 -769 -687 -576 -591 -522 -525 -581 -504 -396 -357 -339 -319 -330 -383 -414
-0 -0 -0 -0 -0 -0 -0 -257 -287 -284 -302 -313 -350 -419 -476 -531 -541 -585 -538 -568 -548 -490 -441 -461 -350 -170 -172 -345 -471 -449 -475 -397
-0 -0 -0 -0 -0 -0 -0 -138 -304 -315 -306 -303 -360 -490 -514 -546 -544 -509 -470 -449 -411 -332 -307 -329 -221 -129 -158 -300 -454 -669 -672 -543
-0 -0 -0 -0 -0 -0 -0 -128 -284 -313 -306 -355 -452 -458 -514 -547 -525 -492 -497 -484 -432 -387 -302 -237 -235 -229 -358 -368 -491 -0 -0 -0
-0 -0 -0 -0 -0 -0 -0 -0 -281 -318 -378 -428 -460 -508 -567 -552 -560 -562 -487 -492 -491 -432 -350 -293 -344 -381 -378 -413 -508 -0 -0 -0
-0 -0 -0 -0 -0 -0 -0 -0 -286 -394 -441 -447 -500 -529 -612 -638 -640 -576 -588 -602 -583 -538 -458 -367 -336 -350 -299 -377 -420 -337 -0 -0
Wind_Speed
5 4 5 5 5 10 7 6 8 9 4 1 4 5 8 7 12 15 12 7 10 16 15 16 15 14 14 14 14 14 14 14
6 3 4 9 10 12 6 2 2 7 10 4 5 12 8 15 15 16 8 6 13 15 15 16 15 14 12 13 13 13 13 12
2 3 2 2 16 3 6 5 1 1 4 5 3 13 18 17 14 17 11 6 10 14 15 16 15 14 14 13 12 12 12 12
3 5 4 2 2 3 5 3 2 6 7 3 7 15 13 13 12 13 13 6 7 12 13 14 15 15 14 13 13 12 12 12
3 7 6 2 3 3 4 4 3 4 6 3 5 8 15 13 11 10 13 8 6 7 11 14 13 14 13 13 12 11 10 10
1 4 4 4 3 3 1 2 4 1 6 7 8 13 11 11 9 11 11 11 7 7 6 6 6 14 13 13 13 12 12 11
3 1 2 1 3 3 0 1 2 2 2 7 19 15 12 10 7 11 11 11 11 10 7 7 6 8 13 14 13 12 11 11
5 4 1 6 5 3 1 1 2 0 6 19 21 17 15 15 13 12 13 14 13 12 12 9 8 6 5 5 4 4 4 5
6 4 5 7 3 4 4 5 11 14 13 19 19 16 16 14 18 22 16 12 15 13 9 9 7 5 4 3 3 3 5 4
4 2 2 3 2 5 8 9 5 4 12 20 21 18 16 16 14 15 13 13 13 12 10 8 3 6 5 5 4 4 4 5
6 5 7 5 10 9 10 14 2 7 6 16 16 16 15 12 9 11 13 14 13 12 11 8 5 4 4 6 5 4 4 4
4 9 6 10 8 5 11 0 5 10 6 7 10 13 11 13 13 13 13 14 11 13 11 9 7 6 5 4 4 4 4 5
3 3 6 5 4 10 6 11 9 5 6 9 10 9 13 15 15 14 12 13 13 13 11 11 9 5 4 4 4 4 4 6
6 3 4 4 9 10 6 10 10 8 7 6 3 7 9 11 14 11 9 12 12 12 10 9 8 6 3 4 4 4 5 4
9 5 4 3 8 8 4 9 9 8 8 8 6 3 2 7 9 13 13 9 11 9 9 8 6 4 4 1 1 2 1 3
4 6 1 5 11 9 4 11 14 11 12 11 9 4 4 6 7 10 9 11 11 9 9 9 6 4 5 5 5 4 3 3
6 3 3 9 12 17 6 7 10 12 13 11 8 3 3 5 7 9 7 10 11 10 8 7 3 4 4 4 4 3 4 6
8 5 6 12 13 15 9 17 21 17 15 13 8 8 6 5 4 5 6 7 7 9 7 6 4 4 5 6 3 4 4 6
9 10 6 6 8 6 3 4 12 13 14 16 22 18 11 9 7 7 7 6 6 6 8 7 10 9 9 9 5 3 5 4
10 1 6 3 7 7 3 6 8 9 10 16 13 9 9 9 9 10 7 6 6 6 7 7 8 9 10 8 7 3 4 3
Wind_Direction
95 128 149 172 241 255 215 198 156 134 106 104 146 106 157 129 139 140 147 150 161 152 148 148 145 144 143 141 139 136 133 132
80 180 224 169 195 231 128 307 304 141 119 96 235 151 142 135 141 150 147 151 161 153 148 150 149 146 144 144 146 145 141 137
47 282 224 204 186 208 323 247 159 174 102 68 12 109 134 139 146 156 156 156 156 155 151 154 153 153 153 154 156 155 149 144
24 288 300 2 314 16 266 243 70 79 99 54 122 128 141 133 138 156 160 148 154 158 156 160 161 162 163 162 165 166 160 156
253 297 334 156 120 298 301 322 38 171 77 81 165 150 140 137 138 154 165 156 153 156 169 170 168 170 172 171 171 171 171 167
265 302 360 12 341 261 208 300 274 164 152 178 186 154 131 129 135 157 169 170 165 159 162 164 179 179 182 181 182 178 181 180
259 215 237 1 88 240 57 286 359 1 120 161 143 142 133 126 123 170 178 182 181 176 172 170 174 191 190 193 191 191 189 191
223 162 254 186 163 217 255 108 293 157 82 126 144 153 155 162 165 179 183 191 190 187 188 177 183 191 183 197 187 192 194 190
260 227 203 200 208 240 111 247 223 186 154 149 160 168 170 178 176 186 183 185 190 191 191 187 190 177 183 199 184 195 201 193
271 146 103 203 172 240 175 235 56 194 161 154 172 174 179 184 188 180 179 195 188 187 187 197 198 191 187 187 186 203 200 198
255 280 219 204 209 212 220 236 290 154 176 171 178 186 182 186 190 179 182 194 194 187 186 188 213 198 193 194 196 196 189 203
284 286 226 164 235 154 252 192 227 164 195 143 176 181 172 179 186 195 188 192 187 194 193 179 198 198 207 199 190 186 187 212
292 295 264 161 157 215 235 163 210 133 163 144 179 193 193 188 195 188 190 182 186 194 194 184 190 189 211 194 185 193 203 209
289 5 288 130 259 258 227 156 206 164 148 124 133 189 205 183 181 166 165 186 178 188 189 177 186 187 199 218 200 206 205 206
308 215 252 173 261 266 147 158 178 163 150 150 134 109 103 160 167 172 179 170 173 174 175 169 173 172 203 187 51 348 184 231
239 292 51 301 269 271 162 167 167 160 160 163 155 172 151 115 109 135 147 157 165 167 164 158 159 146 101 76 60 37 29 29
261 219 337 269 266 272 204 160 168 171 167 166 151 185 131 101 103 108 96 125 139 140 162 147 130 137 122 97 85 57 47 66
290 249 158 271 259 273 178 183 182 176 175 170 158 179 167 146 116 89 116 103 118 127 138 130 117 124 123 121 94 85 61 46
232 310 212 260 284 286 176 110 191 186 183 175 176 172 170 164 143 121 113 115 113 118 121 117 115 106 104 114 114 80 67 71
273 355 257 144 268 294 266 138 198 186 187 196 186 174 161 158 149 146 138 120 125 119 115 118 128 127 142 133 127 83 101 95